Regional Weather Roundup
Issued by NWS Little Rock, AR

Home | Current Version | Previous Version | Graphics & Text | Print | Product List | Glossary On
Versions: 1 2 3 4 5 6 7 8 9 10 11 12 13 14 15 16 17 18 19 20 21 22 23 24 25 26 27 28 29 30 31 32 33
000
ASUS44 KLZK 200505
RWRLZK

WEATHER ROUNDUP FOR ARKANSAS
NATIONAL WEATHER SERVICE LITTLE ROCK AR
1200 AM CDT FRI OCT 20 2017

NOTE: "FAIR" INDICATES FEW OR NO CLOUDS BELOW 12,000 FEET WITH NO
SIGNIFICANT WEATHER AND/OR OBSTRUCTIONS TO VISIBILITY.

ARZ001-003-010-029-200600-
NORTHWEST ARKANSAS

CITY           SKY/WX    TMP DP  RH WIND       PRES   REMARKS
FAYETTEVILLE   FAIR      46  45  96 VRB3      30.15F
FORT SMITH     FAIR      63  52  67 E5        30.15R
HARRISON       FAIR      59  51  75 SE10      30.18S
BENTONVILLE    FAIR      56  50  80 SE5       30.17S
ROGERS         FAIR      59  52  77 SE6       30.16S
SILOAM SPGS    FAIR      56  50  80 SE6       30.16S
HIGHFILL       FAIR      55  50  83 E3        30.16S
$$

ARZ004-005-016-200600-
NORTH CENTRAL ARKANSAS

CITY           SKY/WX    TMP DP  RH WIND       PRES   REMARKS
BATESVILLE     FAIR      59  50  72 SE3       30.20S
FLIPPIN        FAIR      58  52  80 E3        30.18S
MTN HOME       FAIR      58  53  84 S6        30.17F
$$

ARZ040-041-200600-
WEST CENTRAL ARKANSAS

CITY           SKY/WX    TMP DP  RH WIND       PRES   REMARKS
MENA           FAIR      52  50  93 CALM      30.18S
$$

ARZ009-017-025-026-028-200600-
NORTHEAST ARKANSAS

CITY           SKY/WX    TMP DP  RH WIND       PRES   REMARKS
CORNING        FAIR      55  52  88 CALM      30.20S FOG
JONESBORO      FAIR      51  49  92 CALM      30.20F
NEWPORT        FAIR      55  50  83 S6        30.20S
WALNUT RIDGE   FAIR      55  49  80 S5        30.20S
BLYTHEVILLE    FAIR      57  52  83 S6        30.21S
$$

ARZ022-023-033-042-044-200600-
CENTRAL ARKANSAS

CITY           SKY/WX    TMP DP  RH WIND       PRES   REMARKS
LITTLE ROCK    FAIR      56  53  90 CALM      30.19S
JACKSONVILLE   FAIR      52  51  96 CALM      30.18S
SEARCY         FAIR      52  52 100 CALM      30.20S
HOT SPRINGS    FAIR      60  53  77 E5        30.19S
RUSSELLVILLE   FAIR      54  53  97 CALM      30.17S
CLINTON        CLOUDY    50  50 100 CALM      30.20F
$$

ARZ036-200600-
EAST ARKANSAS

CITY           SKY/WX    TMP DP  RH WIND       PRES   REMARKS
WEST MEMPHIS   FAIR      53  52  96 CALM      30.20S
$$

ARZ050-053-066-070-073-200600-
SOUTHWEST ARKANSAS

CITY           SKY/WX    TMP DP  RH WIND       PRES   REMARKS
ARKADELPHIA    FAIR      51  50  96 CALM      30.19S
CAMDEN         FAIR      52  50  93 MISG      30.17S FOG
TEXARKANA      FAIR      63  57  81 SE5       30.17R
EL DORADO      FAIR      55  55 100 CALM      30.18R
DE QUEEN       FAIR      52  52 100 E3        30.15S FOG
$$

ARZ056-057-069-200600-
SOUTHEAST ARKANSAS

CITY           SKY/WX    TMP DP  RH WIND       PRES   REMARKS
PINE BLUFF     FAIR      52  47  83 CALM      30.19S
STUTTGART      FAIR      59  51  75 SE6       30.19F
MONTICELLO     FAIR      56  53  90 CALM      30.19F

$$






USA.gov is the U.S. government's official web portal to all federal, state and local government web resources and services.